Weather History for KOVS - July, 2013

Change the Weather History Date:

Sunday, July 21, 2013

  Actual Average (KPDC) Record (KPDC)
Temperature  
Mean Temperature 74 °F -  
Max Temperature 86 °F 84 °F 100 °F (1983)
Min Temperature 64 °F 61 °F 49 °F (1966)
Cooling Degree Days 9    
Growing Degree Days 24 (Base 50)    
Moisture  
Dew Point 64 °F    
Average Humidity 80    
Maximum Humidity 93    
Minimum Humidity 55    
Precipitation  
Precipitation 0.13 in - - ()
Sea Level Pressure  
Sea Level Pressure 29.92 in    
Wind  
Wind Speed 3 mph (NE)    
Max Wind Speed 14 mph    
Max Gust Speed 29 mph    
Visibility 10 miles    
Events Rain    
Averages and records for this station are not official NWS values.
T = Trace of Precipitation, MM = Missing Value Source: NWS Daily Summary

Daily Weather History Graph

Daily Weather History Graph

Search for Another Location

Airport or City:

Trip Planner

Search our weather history database for the weather conditions in past years. The results will help you decide how hot, cold, wet, or windy it might be!

Date:

Astronomy

Jul. 21, 2013 Rise Set
Actual Time 5:42 AM CDT 8:35 PM CDT
Civil Twilight 5:08 AM CDT 9:08 PM CDT
Nautical Twilight 4:26 AM CDT 9:51 PM CDT
Astronomical Twilight 3:36 AM CDT 10:40 PM CDT
Moon 7:32 PM CDT (7/21) 4:28 AM CDT (7/21)
Length of Visible Light 16h 00m
Length of Day
14h 53m
Waxing Gibbous, 98% of the Moon is Illuminated
Jul 21
Waxing Gibbous
Jul 22
Full
Jul 29
Last Quarter
Aug 6
New
Aug 14
First Quarter

Hourly Weather History & Observations

Time (CDT) Temp. Heat Index Dew Point Humidity Pressure Visibility Wind Dir Wind Speed Gust Speed Precip Events Conditions
12:53 AM 69.1 °F - 66.0 °F 90% 29.93 in 10.0 mi Calm Calm - N/A   Mostly Cloudy
1:53 AM 66.9 °F - 64.9 °F 93% 29.93 in 7.0 mi NNE 3.5 mph - N/A   Clear
2:53 AM 66.9 °F - 64.9 °F 93% 29.93 in 8.0 mi ENE 3.5 mph - N/A   Clear
3:30 AM 66.9 °F - 64.9 °F 93% 29.94 in 9.0 mi NNE 4.6 mph - N/A   Mostly Cloudy
3:53 AM 66.9 °F - 64.0 °F 90% 29.93 in 10.0 mi NE 4.6 mph - N/A   Scattered Clouds
4:53 AM 64.9 °F - 63.0 °F 93% 29.94 in 10.0 mi NE 3.5 mph - N/A   Partly Cloudy
5:53 AM 64.0 °F - 62.1 °F 93% 29.94 in 9.0 mi NE 3.5 mph - N/A   Clear
6:53 AM 66.9 °F - 62.1 °F 84% 29.95 in 10.0 mi Variable 3.5 mph - N/A   Scattered Clouds
7:53 AM 69.1 °F - 60.1 °F 73% 29.95 in 10.0 mi NE 4.6 mph - N/A   Clear
8:53 AM 71.1 °F - 61.0 °F 70% 29.95 in 10.0 mi Variable 4.6 mph - N/A   Partly Cloudy
9:53 AM 75.0 °F - 63.0 °F 66% 29.95 in 10.0 mi Calm Calm - N/A   Clear
10:53 AM 75.9 °F - 64.0 °F 67% 29.94 in 10.0 mi South 4.6 mph - N/A   Clear
11:53 AM 80.1 °F 81.9 °F 64.9 °F 60% 29.93 in 10.0 mi Variable 4.6 mph - N/A   Clear
12:53 PM 81.0 °F 83.3 °F 66.9 °F 62% 29.92 in 10.0 mi Calm Calm - N/A   Clear
1:53 PM 84.9 °F 87.6 °F 66.9 °F 55% 29.90 in 10.0 mi Variable 3.5 mph - N/A   Partly Cloudy
2:53 PM 81.0 °F 84.4 °F 70.0 °F 69% 29.88 in 9.0 mi South 3.5 mph - 0.01 in Rain Light Rain
3:53 PM 70.0 °F - 62.1 °F 76% 29.91 in 10.0 mi NE 13.8 mph 28.8 mph 0.00 in   Overcast
4:11 PM 69.1 °F - 62.1 °F 78% 29.91 in 10.0 mi ENE 12.7 mph 24.2 mph N/A   Mostly Cloudy
4:53 PM 69.1 °F - 62.1 °F 78% 29.91 in 10.0 mi ENE 6.9 mph - 0.00 in Rain Light Rain
5:53 PM 68.0 °F - 62.1 °F 81% 29.92 in 10.0 mi Variable 3.5 mph - 0.01 in Rain Light Rain
6:53 PM 66.9 °F - 64.0 °F 90% 29.91 in 10.0 mi ENE 4.6 mph - 0.11 in Rain Light Rain
7:53 PM 66.9 °F - 63.0 °F 87% 29.89 in 10.0 mi NE 4.6 mph - 0.00 in   Scattered Clouds
8:53 PM 66.9 °F - 64.0 °F 90% 29.90 in 10.0 mi Calm Calm - N/A   Overcast
10:53 PM 64.9 °F - 63.0 °F 93% 29.89 in 10.0 mi Calm Calm - N/A   Clear
11:53 PM 66.9 °F - 63.0 °F 87% 29.90 in 10.0 mi Calm Calm - N/A   Overcast